Tracking 28052 objects as of 21-Sep-2023
HD Live streaming from Space Station
objects crossing your sky now

TVSAT 2

Track TVSAT 2 now!
TVSAT 2 is classified as:


NORAD ID: 20168
Int'l Code: 1989-062A
Perigee: 35,868.2 km
Apogee: 35,958.0 km
Inclination: 14.7 °
Period: 1,442.2 minutes
Semi major axis: 42284 km
RCS: 2.0976 m2 (large)
Launch date: August 8, 1989
Source: Germany (GER)
Launch site: FRENCH GUIANA (FRGUI)
Your satellite tracking list
Your tracking list is empty




NASA's NSSDC Master Catalog

Two Line Element Set (TLE):
1 20168U 89062A   23263.24595529 -.00000262  00000-0  00000-0 0  9990
2 20168  14.7131   3.3571 0010623 149.4305 231.4122  0.99847469124517
Source of the keplerian elements: AFSPC